Weather in Malinovka

Russia / Tomsk District     56°41′31″N   85°20′14″E
temp.,
°C
wind,
m/s
gust,
m/s
humid.,
%
clouds,
%
prec.,
mm/h
press.,
hPa
HPBL,
m
6 march, sat
sat601:00−5sw71593100 1.6 10111378
04:00−5sw61493100 0.8 10111057
07:00−5sw71491100 1.3 10121004
10:00−6ssw71394100 1.0 1011885
13:00−6ssw71491100 2.3 10081090
16:00−6ssw71493100 1.6 10071086
19:00−5ssw71690100 3.1 10051169
22:00−4sw81789100 0.3 10041213
7 march, sun
sun701:00−5wsw61485100 1.2 10061208
04:00−8sw6139098 0.1 1007766
07:00−10sw6139399 0.2 1010729
10:00−11wsw61391100 0.1 1012651
13:00−8wsw6128392 0.1 1014948
16:00−7wsw6117956 0.1 10151327
19:00−9wsw4128678 0.1 1017712
22:00−12sw312930 0.0 1020367
8 march, mon
mon801:00−14sw369730 0.0 1021141
04:00−15s239699 0.0 102173
07:00−13se3787100 0.0 1020171
10:00−8sse51194100 0.1 1016388
13:00−3s61392100 0.3 1011704
16:00−1s61484100 0.1 1006972
19:00−1ssw71682100 0.3 1003949
22:00−3sw81792100 0.1 10011235
9 march, tue
tue901:00−5wsw91682100 0.6 10051168
04:00−10wsw71490100 0.1 10111011
07:00−11wsw61390100 0.3 1015888
10:00−11wsw61291100 0.2 1018780
13:00−9wsw61089100 0.3 1021808
16:00−8sw5885100 0.1 1023895
19:00−10ssw3993100 0.1 1023342
22:00−13ssw4119045 0.0 1022306
10 march, wed
wed1001:00−12s4129070 0.0 1020367
04:00−12s4119199 0.0 1017306
07:00−14ssw4129578 0.0 1015278
10:00−9ssw5119499 0.3 1013444
13:00−5sw51089100 0.3 1012706
16:00−3sw488789 0.0 1011818
19:00−5sw259395 0.1 1011187
22:00−6sse1294100 0.0 101028